Retour au catalogue

USA 141

ActifMilitairePO
NORAD 25615·PAYLOAD·🇺🇸 United States

Lancé Oct 3, 1998 depuis Vandenberg Space Force Base

Loading…

Prochains Passages (prochaines 24 heures)

TLE

FraisSource: Space-Track

Époque: Sep 14, 2026, 14:09 UTC

1 25615U 98055C   26257.59012136  .00000223  00000-0  55446-4 0  9990
2 25615  84.9859 314.8131 0005644 278.7926  81.2636 14.47288471386969

Suivez USA 141 en temps réel avec AllMySat

Download on the App Store